TimeEST,TemperatureF,Dew PointF,Humidity,Sea Level PressureIn,VisibilityMPH,Wind Direction,Wind SpeedMPH,Gust SpeedMPH,PrecipitationIn,Events,Conditions,WindDirDegrees,DateUTC
12:10 AM,30.2,30.2,100,30.22,2.5,Calm,Calm,-,N/A,,Overcast,0,2013-02-26 05:10:00
12:17 AM,30.2,30.2,100,30.22,3.0,Calm,Calm,-,N/A,,Overcast,0,2013-02-26 05:17:00
12:36 AM,30.2,28.4,93,30.23,2.5,Calm,Calm,-,N/A,,Overcast,0,2013-02-26 05:36:00
12:51 AM,30.9,28.9,92,30.24,2.5,Calm,Calm,-,N/A,,Overcast,0,2013-02-26 05:51:00
1:04 AM,30.2,30.2,100,30.24,3.0,Calm,Calm,-,N/A,,Overcast,0,2013-02-26 06:04:00
1:15 AM,30.2,30.2,100,30.24,2.5,Calm,Calm,-,N/A,,Overcast,0,2013-02-26 06:15:00
1:42 AM,32.0,30.2,93,30.24,3.0,Calm,Calm,-,N/A,,Overcast,0,2013-02-26 06:42:00
1:51 AM,32.0,30.0,92,30.24,3.0,Calm,Calm,-,N/A,,Overcast,0,2013-02-26 06:51:00
2:20 AM,30.2,28.4,93,30.23,2.0,Calm,Calm,-,N/A,,Overcast,0,2013-02-26 07:20:00
2:48 AM,30.2,28.4,93,30.23,3.0,NW,3.5,-,N/A,,Overcast,310,2013-02-26 07:48:00
2:51 AM,30.9,30.0,96,30.23,3.0,NW,3.5,-,N/A,,Overcast,310,2013-02-26 07:51:00
3:51 AM,30.9,30.0,96,30.27,4.0,Calm,Calm,-,N/A,,Overcast,0,2013-02-26 08:51:00
4:38 AM,30.2,30.2,100,30.27,2.5,Calm,Calm,-,N/A,,Overcast,0,2013-02-26 09:38:00
4:51 AM,30.9,30.0,96,30.28,2.5,Calm,Calm,-,N/A,,Overcast,0,2013-02-26 09:51:00
5:10 AM,30.2,30.2,100,30.27,3.0,Calm,Calm,-,N/A,,Overcast,0,2013-02-26 10:10:00
5:34 AM,30.2,28.4,93,30.28,2.5,Calm,Calm,-,N/A,,Overcast,0,2013-02-26 10:34:00
5:42 AM,30.2,30.2,100,30.28,4.0,Calm,Calm,-,N/A,,Overcast,0,2013-02-26 10:42:00
5:51 AM,30.9,30.0,96,30.29,4.0,Calm,Calm,-,N/A,,Overcast,0,2013-02-26 10:51:00
6:51 AM,32.0,30.0,92,30.31,5.0,Calm,Calm,-,N/A,,Overcast,0,2013-02-26 11:51:00
7:51 AM,33.1,30.9,92,30.32,7.0,Calm,Calm,-,N/A,,Overcast,0,2013-02-26 12:51:00
8:51 AM,33.1,30.9,92,30.34,9.0,Calm,Calm,-,N/A,,Overcast,0,2013-02-26 13:51:00
9:51 AM,36.0,30.9,82,30.34,10.0,Variable,3.5,-,N/A,,Overcast,0,2013-02-26 14:51:00
10:51 AM,37.0,30.0,76,30.33,10.0,East,5.8,-,N/A,,Overcast,90,2013-02-26 15:51:00
11:35 AM,37.4,28.4,70,30.32,10.0,ESE,5.8,-,N/A,,Overcast,110,2013-02-26 16:35:00
11:51 AM,37.0,28.9,73,30.33,10.0,East,5.8,-,N/A,,Overcast,90,2013-02-26 16:51:00
12:51 PM,37.9,28.0,68,30.31,10.0,ESE,4.6,-,N/A,,Overcast,110,2013-02-26 17:51:00
1:51 PM,39.0,27.0,62,30.32,10.0,ESE,5.8,-,N/A,,Overcast,120,2013-02-26 18:51:00
2:51 PM,39.0,27.0,62,30.30,10.0,ESE,5.8,-,N/A,,Overcast,110,2013-02-26 19:51:00
3:51 PM,39.0,28.0,65,30.29,10.0,SSE,5.8,-,N/A,,Overcast,150,2013-02-26 20:51:00
4:51 PM,37.0,27.0,67,30.29,10.0,ESE,4.6,-,N/A,,Overcast,110,2013-02-26 21:51:00
5:51 PM,36.0,27.0,70,30.28,10.0,East,4.6,-,N/A,,Mostly Cloudy,90,2013-02-26 22:51:00
6:51 PM,35.1,27.0,72,30.28,10.0,Calm,Calm,-,N/A,,Scattered Clouds,0,2013-02-26 23:51:00
7:51 PM,34.0,27.0,75,30.28,10.0,Calm,Calm,-,N/A,,Mostly Cloudy,0,2013-02-27 00:51:00
8:51 PM,33.1,27.0,78,30.28,10.0,Calm,Calm,-,N/A,,Scattered Clouds,0,2013-02-27 01:51:00
9:51 PM,32.0,28.0,85,30.25,10.0,Calm,Calm,-,N/A,,Clear,0,2013-02-27 02:51:00
10:51 PM,32.0,28.0,85,30.23,10.0,Calm,Calm,-,N/A,,Clear,0,2013-02-27 03:51:00
11:51 PM,32.0,27.0,82,30.19,10.0,Calm,Calm,-,N/A,,Partly Cloudy,0,2013-02-27 04:51:00